QPF
0.00 0.00 0.00 0.00 0.00 0.00 0.00 0.00 0.00 0.00 0.00 0.00 0.03 0.03 0.10 0.14 0.13 0.09 0.05 0.02 0.00 0.00 0.01 0.01 0.01 0.00 0.00 0.00 0.00 0.00 0.00 0.00 0.00 0.00 0.00 0.00 0.00 0.00 0.00 0.00 0.00 0.00 0.00
0.00 0.00 0.00 0.00 0.00 0.00 0.00 0.00 0.00 0.00 0.00 0.00 0.00 0.00 0.01 0.02 0.09 0.08 0.03 0.00 0.01 0.04 0.03 0.01 0.00 0.00 0.00 0.00 0.00 0.00 0.00 0.00 0.00 0.00 0.00 0.00 0.00 0.00 0.00 0.00 0.00 0.00 0.00
0.00 0.00 0.00 0.00 0.00 0.00 0.00 0.00 0.00 0.00 0.00 0.00 0.00 0.00 0.00 0.00 0.02 0.05 0.03 0.06 0.08 0.07 0.05 0.03 0.01 0.03 0.01 0.01 0.00 0.00 0.00 0.00 0.00 0.00 0.00 0.00 0.00 0.00 0.00 0.00 0.00 0.00 0.00
0.00 0.00 0.00 0.00 0.00 0.00 0.00 0.00 0.00 0.00 0.00 0.00 0.00 0.00 0.00 0.00 0.00 0.03 0.04 0.04 0.02 0.04 0.04 0.03 0.05 0.06 0.05 0.04 0.01 0.00 0.00 0.00 0.00 0.00 0.00 0.00 0.00 0.00 0.00 0.00 0.00 0.00 0.00
0.00 0.00 0.00 0.00 0.00 0.00 0.00 0.00 0.00 0.00 0.00 0.00 0.00 0.00 0.00 0.00 0.02 0.03 0.03 0.04 0.03 0.03 0.03 0.02 0.03 0.03 0.04 0.02 0.00 0.00 0.00 0.00 0.00 0.00 0.00 0.00 0.00 0.00 0.00 0.00 0.00 0.00 0.00
0.00 0.00 0.00 0.00 0.00 0.00 0.00 0.00 0.00 0.00 0.00 0.00 0.00 0.00 0.00 0.00 0.00 0.00 0.00 0.00 0.00 0.00 0.00 0.00 0.00 0.00 0.00 0.00 0.00 0.00 0.00 0.00 0.00 0.00 0.00 0.00 0.00 0.00 0.00 0.00 0.00 0.00 0.00
0.00 0.00 0.00 0.00 0.00 0.00 0.00 0.00 0.00 0.00 0.00 0.00 0.00 0.00 0.00 0.00 0.00 0.00 0.00 0.00 0.00 0.00 0.00 0.00 0.00 0.00 0.00 0.00 0.00 0.00 0.00 0.00 0.00 0.00 0.00 0.00 0.00 0.00 0.00 0.00 0.00 0.00 0.00
0.00 0.00 0.00 0.00 0.00 0.00 0.00 0.00 0.00 0.00 0.00 0.00 0.00 0.00 0.00 0.00 0.00 0.00 0.00 0.00 0.00 0.00 0.00 0.00 0.00 0.00 0.00 0.00 0.00 0.00 0.00 0.00 0.00 0.00 0.00 0.00 0.00 0.00 0.00 0.00 0.00 0.00 0.00
0.00 0.00 0.00 0.00 0.00 0.00 0.00 0.00 0.00 0.00 0.00 0.00 0.00 0.00 0.00 0.00 0.00 0.00 0.00 0.00 0.00 0.00 0.00 0.00 0.00 0.00 0.00 0.00 0.00 0.00 0.00 0.00 0.00 0.00 0.00 0.00 0.00 0.00 0.00 0.00 0.00 0.00 0.00
0.00 0.00 0.00 0.00 0.00 0.00 0.00 0.00 0.00 0.00 0.00 0.00 0.00 0.00 0.00 0.00 0.00 0.00 0.00 0.00 0.00 0.00 0.00 0.00 0.00 0.00 0.00 0.00 0.00 0.00 0.00 0.00 0.00 0.00 0.00 0.00 0.00 0.00 0.00 0.00 0.00 0.00 0.00
0.00 0.00 0.00 0.00 0.00 0.00 0.00 0.00 0.00 0.00 0.00 0.00 0.00 0.00 0.00 0.00 0.00 0.00 0.00 0.00 0.00 0.00 0.00 0.00 0.00 0.00 0.00 0.00 0.00 0.00 0.00 0.00 0.00 0.00 0.00 0.00 0.00 0.00 0.00 0.00 0.00 0.00 0.00
0.00 0.00 0.00 0.00 0.00 0.00 0.00 0.00 0.00 0.00 0.00 0.00 0.00 0.00 0.00 0.00 0.00 0.00 0.00 0.00 0.00 0.00 0.00 0.00 0.00 0.00 0.00 0.00 0.00 0.00 0.00 0.00 0.00 0.00 0.00 0.00 0.00 0.00 0.00 0.00 0.00 0.00 0.00
0.00 0.00 0.00 0.00 0.00 0.00 0.00 0.00 0.00 0.00 0.00 0.00 0.00 0.00 0.00 0.00 0.00 0.00 0.00 0.00 0.00 0.00 0.00 0.00 0.00 0.00 0.00 0.00 0.00 0.00 0.00 0.00 0.00 0.00 0.00 0.00 0.00 0.00 0.00 0.00 0.00 0.00 0.00
0.00 0.00 0.00 0.00 0.00 0.00 0.00 0.00 0.00 0.00 0.00 0.00 0.00 0.00 0.00 0.00 0.00 0.00 0.00 0.00 0.00 0.00 0.00 0.00 0.00 0.00 0.00 0.00 0.00 0.00 0.00 0.00 0.00 0.00 0.00 0.00 0.00 0.00 0.00 0.00 0.00 0.00 0.00
0.00 0.00 0.00 0.00 0.00 0.00 0.00 0.00 0.00 0.00 0.00 0.00 0.00 0.00 0.00 0.00 0.00 0.00 0.00 0.00 0.00 0.00 0.00 0.00 0.00 0.00 0.00 0.00 0.00 0.00 0.00 0.00 0.00 0.00 0.00 0.00 0.00 0.00 0.00 0.00 0.00 0.00 0.00
0.00 0.00 0.00 0.00 0.00 0.00 0.00 0.00 0.00 0.00 0.00 0.00 0.00 0.00 0.00 0.00 0.00 0.00 0.00 0.00 0.00 0.00 0.00 0.00 0.00 0.00 0.00 0.00 0.00 0.00 0.00 0.00 0.00 0.00 0.00 0.00 0.00 0.00 0.00 0.00 0.00 0.00 0.00
0.00 0.00 0.00 0.00 0.00 0.00 0.00 0.00 0.00 0.00 0.00 0.00 0.00 0.00 0.00 0.00 0.00 0.00 0.00 0.00 0.00 0.00 0.00 0.00 0.00 0.00 0.00 0.00 0.00 0.00 0.00 0.00 0.00 0.00 0.00 0.00 0.00 0.00 0.00 0.00 0.00 0.00 0.00
0.00 0.00 0.00 0.00 0.00 0.00 0.00 0.00 0.00 0.00 0.00 0.00 0.00 0.00 0.00 0.00 0.00 0.00 0.00 0.00 0.00 0.00 0.00 0.00 0.00 0.00 0.00 0.00 0.00 0.00 0.00 0.00 0.00 0.00 0.00 0.00 0.00 0.00 0.00 0.00 0.00 0.00 0.00
0.00 0.00 0.00 0.00 0.00 0.00 0.00 0.00 0.00 0.00 0.00 0.00 0.00 0.00 0.00 0.00 0.00 0.00 0.00 0.00 0.00 0.00 0.00 0.00 0.00 0.00 0.00 0.00 0.00 0.00 0.00 0.00 0.00 0.00 0.00 0.00 0.00 0.00 0.00 0.00 0.00 0.00 0.00
0.00 0.00 0.00 0.00 0.00 0.00 0.00 0.00 0.00 0.00 0.00 0.00 0.00 0.00 0.00 0.00 0.00 0.00 0.00 0.00 0.00 0.00 0.00 0.00 0.00 0.00 0.00 0.00 0.00 0.00 0.00 0.00 0.00 0.00 0.00 0.00 0.00 0.00 0.00 0.00 0.00 0.00 0.00
0.00 0.00 0.01 0.00 0.00 0.00 0.00 0.00 0.00 0.00 0.00 0.00 0.00 0.00 0.00 0.00 0.00 0.00 0.00 0.00 0.00 0.00 0.00 0.00 0.00 0.00 0.00 0.00 0.00 0.00 0.00 0.00 0.00 0.00 0.00 0.00 0.00 0.00 0.00 0.00 0.00 0.00 0.00
0.00 0.00 0.00 0.00 0.00 0.00 0.00 0.00 0.00 0.00 0.00 0.00 0.00 0.00 0.00 0.00 0.00 0.00 0.00 0.00 0.00 0.00 0.00 0.00 0.00 0.00 0.00 0.00 0.00 0.00 0.00 0.00 0.00 0.00 0.00 0.00 0.00 0.00 0.00 0.00 0.00 0.00 0.00
0.00 0.00 0.00 0.00 0.00 0.00 0.00 0.00 0.00 0.00 0.00 0.00 0.00 0.00 0.00 0.00 0.00 0.00 0.00 0.00 0.00 0.00 0.00 0.00 0.00 0.00 0.00 0.00 0.00 0.00 0.00 0.00 0.00 0.00 0.00 0.00 0.00 0.00 0.00 0.00 0.00 0.00 0.00
0.00 0.00 0.00 0.00 0.01 0.01 0.00 0.01 0.00 0.00 0.00 0.00 0.00 0.00 0.00 0.00 0.00 0.00 0.00 0.00 0.00 0.00 0.00 0.00 0.00 0.00 0.00 0.00 0.00 0.00 0.00 0.00 0.00 0.00 0.00 0.00 0.00 0.00 0.00 0.00 0.00 0.00 0.00
0.00 0.00 0.00 0.00 0.00 0.00 0.00 0.00 0.00 0.00 0.00 0.01 0.00 0.00 0.00 0.00 0.00 0.00 0.00 0.00 0.00 0.00 0.00 0.00 0.00 0.00 0.00 0.00 0.00 0.00 0.00 0.00 0.00 0.00 0.00 0.00 0.00 0.00 0.00 0.00 0.00 0.00 0.00
0.00 0.00 0.00 0.00 0.00 0.00 0.00 0.00 0.00 0.00 0.00 0.00 0.00 0.00 0.00 0.00 0.00 0.00 0.00 0.00 0.00 0.00 0.00 0.00 0.00 0.00 0.00 0.00 0.00 0.00 0.00 0.00 0.00 0.00 0.00 0.00 0.00 0.00 0.00 0.00 0.00 0.00 0.00
MSLP
1008.69 1008.93 1009.07 1009.07 1009.25 1009.22 1009.29 1009.50 1010.05 1010.02 1010.43 1010.29 1010.18 1010.33 1010.65 1011.03 1011.31 1011.54 1012.15 1012.53 1013.05 1013.97 1014.68 1015.35 1016.25 1016.83 1017.49 1017.93 1018.26 1018.50 1018.62 1018.68 1018.74 1019.05 1019.17 1019.84 1020.22 1020.54 1021.28 1021.48 1021.76 1022.02 1022.66
1008.57 1008.83 1009.16 1009.24 1009.42 1009.46 1009.51 1009.75 1010.17 1010.25 1010.65 1011.17 1011.08 1011.02 1011.27 1011.45 1011.92 1011.99 1012.22 1012.94 1013.39 1013.72 1014.34 1015.48 1016.29 1017.08 1017.64 1017.99 1018.14 1018.07 1018.05 1017.82 1018.11 1018.41 1019.16 1019.88 1020.11 1020.36 1021.08 1020.97 1021.05 1021.03 1021.24
1008.33 1008.88 1009.29 1009.41 1009.64 1009.88 1009.95 1010.08 1010.08 1010.27 1010.71 1011.31 1011.43 1011.89 1011.84 1011.72 1011.92 1012.29 1012.88 1013.00 1013.54 1014.24 1014.93 1015.54 1016.30 1016.91 1017.51 1017.93 1017.66 1017.57 1017.06 1017.20 1017.84 1018.34 1019.03 1019.62 1019.92 1020.06 1020.60 1020.67 1020.84 1020.74 1020.68
1008.16 1008.81 1009.31 1009.54 1009.81 1009.92 1010.01 1009.97 1010.13 1010.31 1010.53 1010.89 1011.47 1011.86 1012.01 1011.82 1012.24 1012.42 1012.60 1013.24 1013.76 1014.30 1014.92 1015.43 1016.02 1016.80 1016.91 1016.98 1016.94 1017.13 1016.88 1016.96 1017.44 1017.99 1018.50 1019.10 1019.42 1020.07 1020.38 1020.58 1020.79 1020.83 1020.83
1008.02 1008.70 1009.33 1009.70 1009.95 1010.06 1010.11 1010.15 1010.29 1010.48 1010.64 1010.90 1011.34 1011.68 1011.85 1011.76 1012.49 1012.60 1012.94 1013.29 1013.71 1014.15 1014.63 1015.10 1015.72 1016.24 1016.48 1016.80 1016.71 1016.86 1016.99 1017.02 1017.44 1017.64 1018.09 1018.75 1019.37 1019.55 1019.93 1019.83 1019.87 1019.89 1020.30
1007.85 1008.49 1009.20 1009.60 1009.84 1010.24 1010.45 1010.61 1010.64 1010.72 1010.87 1011.08 1011.28 1011.82 1012.38 1012.96 1012.96 1012.98 1013.18 1013.55 1014.04 1014.43 1014.92 1015.35 1015.86 1016.17 1016.49 1016.82 1016.73 1016.99 1017.08 1017.00 1017.07 1017.27 1017.61 1018.11 1018.43 1018.96 1019.14 1019.28 1019.36 1019.56 1019.20
1007.60 1008.12 1008.87 1009.36 1009.71 1010.20 1010.45 1010.71 1010.95 1011.16 1011.32 1011.42 1011.85 1012.48 1013.14 1013.68 1013.89 1013.77 1013.63 1013.69 1013.91 1014.40 1014.86 1015.21 1015.47 1016.38 1016.65 1016.93 1017.14 1017.24 1017.52 1017.52 1017.44 1017.50 1017.76 1018.07 1018.37 1018.70 1018.83 1018.93 1019.15 1018.91 1018.84
1007.22 1007.64 1008.37 1008.95 1009.40 1009.93 1010.34 1010.71 1011.28 1011.60 1011.73 1011.92 1012.14 1012.71 1013.52 1014.43 1014.43 1014.30 1014.20 1014.39 1014.53 1014.69 1014.88 1015.07 1015.74 1016.15 1016.57 1016.89 1017.21 1017.29 1017.62 1017.92 1018.18 1018.14 1018.60 1018.89 1018.66 1018.48 1018.44 1018.63 1018.80 1018.89 1018.67
1006.65 1007.14 1007.81 1008.45 1009.07 1009.70 1010.23 1010.83 1011.35 1011.71 1011.94 1012.16 1012.37 1012.77 1013.40 1014.51 1014.95 1015.00 1015.01 1014.75 1014.87 1015.03 1015.39 1015.60 1016.00 1016.49 1017.21 1017.51 1017.33 1017.42 1017.57 1017.96 1018.96 1018.89 1019.12 1019.54 1019.52 1019.61 1019.79 1019.08 1018.62 1018.59 1018.05
1005.97 1006.59 1007.29 1007.89 1008.64 1009.39 1010.07 1010.82 1011.34 1011.70 1011.94 1011.93 1012.36 1012.83 1013.27 1013.93 1014.81 1015.11 1015.04 1014.16 1014.89 1015.24 1015.74 1016.45 1016.76 1016.89 1017.55 1017.78 1017.41 1017.36 1017.54 1017.49 1017.62 1018.03 1018.52 1018.73 1019.26 1019.04 1019.83 1019.92 1019.48 1018.79 1018.20
1005.40 1006.12 1006.88 1007.58 1008.37 1009.10 1009.90 1010.70 1011.25 1011.57 1011.62 1011.83 1012.19 1012.74 1013.17 1013.64 1014.71 1015.10 1015.20 1015.06 1014.81 1015.12 1015.45 1016.16 1016.87 1017.61 1018.00 1018.07 1017.88 1017.59 1018.10 1018.13 1017.86 1018.08 1018.17 1018.11 1018.04 1018.31 1018.51 1018.99 1019.24 1019.38 1018.94
1004.89 1005.62 1006.50 1007.45 1008.09 1008.89 1009.72 1010.44 1011.07 1011.35 1011.50 1011.99 1012.17 1012.53 1012.90 1013.57 1014.33 1015.00 1015.18 1015.58 1015.39 1014.74 1014.93 1015.44 1016.29 1017.06 1017.65 1018.02 1018.31 1018.36 1018.40 1018.53 1018.28 1017.97 1017.74 1017.64 1017.62 1017.62 1017.61 1017.92 1018.44 1018.78 1018.99
1004.41 1005.17 1006.11 1007.22 1007.94 1008.64 1009.45 1010.09 1010.60 1011.07 1011.08 1011.55 1011.79 1011.91 1012.12 1013.00 1014.04 1014.81 1015.18 1015.56 1015.53 1015.36 1015.36 1015.96 1016.39 1017.12 1017.66 1018.08 1018.32 1018.65 1018.92 1018.62 1018.27 1017.99 1017.74 1017.49 1017.45 1017.76 1018.37 1018.57 1018.50 1018.66 1018.68
1004.01 1004.85 1005.75 1006.79 1007.58 1008.29 1009.09 1009.68 1009.85 1010.37 1010.50 1010.71 1010.87 1011.06 1011.37 1012.20 1012.95 1014.43 1015.20 1015.79 1015.92 1016.05 1016.34 1016.69 1017.11 1017.49 1017.79 1017.91 1017.98 1018.39 1018.53 1018.50 1018.32 1018.18 1018.24 1018.15 1018.11 1018.12 1018.39 1018.82 1019.15 1019.24 1018.87
1003.57 1004.37 1005.26 1006.21 1007.22 1007.75 1008.21 1008.55 1008.98 1009.55 1009.76 1009.88 1010.13 1010.32 1010.69 1011.31 1012.04 1013.16 1014.16 1014.92 1015.34 1015.61 1015.69 1015.85 1016.30 1016.46 1016.68 1016.89 1017.13 1017.03 1017.05 1017.45 1017.74 1017.98 1018.36 1018.77 1018.85 1018.87 1019.09 1019.23 1018.54 1018.97 1019.15
1002.96 1003.75 1004.46 1005.08 1006.31 1006.89 1007.59 1008.00 1008.64 1008.97 1009.53 1010.12 1010.42 1010.33 1010.36 1010.93 1011.60 1012.69 1013.74 1014.36 1014.70 1015.01 1015.40 1014.94 1014.97 1015.06 1015.14 1015.27 1015.50 1015.93 1017.22 1017.94 1018.38 1018.46 1018.84 1019.18 1019.43 1019.46 1020.21 1020.01 1019.57 1018.44 1019.13
1002.05 1002.90 1003.77 1004.45 1004.96 1005.66 1006.42 1007.04 1007.96 1009.60 1009.80 1010.22 1010.90 1011.18 1011.20 1011.72 1012.14 1012.81 1013.58 1014.28 1014.77 1015.03 1014.73 1014.12 1013.91 1013.95 1014.61 1015.20 1015.88 1016.58 1017.79 1018.56 1019.05 1019.44 1020.05 1020.39 1020.53 1020.48 1020.90 1020.36 1020.07 1019.51 1019.08
1001.57 1002.31 1003.03 1003.76 1003.84 1004.71 1005.20 1005.97 1006.62 1007.60 1008.90 1009.98 1011.00 1011.48 1011.91 1012.32 1012.60 1013.08 1013.69 1014.43 1015.02 1015.04 1014.08 1013.61 1013.78 1014.51 1014.97 1015.63 1016.47 1017.40 1018.35 1019.12 1019.68 1020.03 1020.46 1020.58 1020.61 1020.37 1020.54 1020.17 1020.06 1020.12 1019.83
1000.67 1001.52 1002.16 1002.44 1003.04 1003.48 1004.16 1004.89 1005.51 1006.00 1006.95 1008.10 1009.16 1011.40 1012.30 1012.83 1013.15 1013.49 1013.66 1013.20 1013.03 1013.14 1013.22 1013.30 1013.78 1015.01 1015.92 1016.82 1017.78 1018.55 1019.32 1019.91 1020.50 1020.82 1020.67 1020.41 1020.05 1020.11 1020.31 1020.61 1020.54 1020.47 1020.46
999.90 1000.73 1001.33 1001.74 1002.05 1002.51 1002.94 1003.39 1004.07 1004.65 1005.14 1006.12 1007.35 1009.19 1011.06 1012.46 1012.99 1013.32 1013.27 1012.87 1012.34 1011.88 1012.79 1014.05 1015.03 1015.97 1016.95 1017.74 1018.62 1019.47 1020.46 1020.66 1020.06 1020.24 1020.70 1020.84 1020.75 1020.67 1020.54 1020.86 1020.78 1020.71 1020.77
998.79 999.78 1000.72 1001.19 1001.20 1001.51 1001.91 1002.31 1002.82 1003.48 1004.11 1004.75 1005.75 1007.46 1009.13 1010.16 1010.93 1011.51 1011.65 1011.23 1011.47 1012.46 1013.82 1014.96 1015.55 1016.75 1017.71 1018.60 1019.00 1019.32 1019.77 1019.97 1020.64 1020.67 1020.51 1020.97 1021.22 1021.06 1021.14 1021.07 1020.99 1020.94 1020.60
997.76 998.49 999.59 1000.30 1000.48 1000.56 1001.07 1001.61 1002.19 1002.80 1003.30 1004.08 1005.37 1007.70 1008.51 1008.62 1009.06 1010.04 1010.72 1011.60 1012.41 1013.25 1014.19 1015.12 1016.05 1016.78 1017.84 1018.51 1018.98 1018.71 1020.39 1020.18 1020.49 1021.17 1020.92 1020.98 1021.07 1021.16 1021.03 1021.00 1020.78 1020.62 1020.52
997.24 997.65 998.29 999.31 999.88 1000.25 1000.60 1001.08 1001.98 1002.46 1002.62 1003.46 1006.14 1007.38 1008.48 1008.12 1009.11 1010.18 1011.68 1012.70 1013.84 1014.77 1015.54 1016.05 1016.40 1017.05 1017.87 1018.71 1018.89 1019.02 1019.93 1020.61 1021.02 1021.14 1020.91 1020.88 1020.68 1021.00 1021.13 1021.01 1020.59 1020.50 1020.59
996.84 997.32 997.83 998.48 999.73 1000.01 1000.38 1000.86 1001.78 1002.23 1002.95 1003.31 1005.38 1006.91 1007.08 1008.32 1009.66 1011.27 1012.86 1014.12 1014.78 1015.37 1015.87 1016.80 1017.82 1018.28 1018.78 1019.06 1019.32 1019.90 1020.44 1021.20 1021.11 1021.01 1020.85 1020.76 1020.78 1020.92 1020.79 1020.57 1020.53 1020.58 1020.63
996.45 996.92 997.49 997.95 999.06 999.95 1000.29 1000.96 1001.89 1001.99 1003.07 1004.32 1005.58 1006.17 1007.41 1008.94 1010.60 1011.99 1013.34 1014.51 1015.63 1016.53 1017.22 1017.60 1018.41 1018.59 1018.86 1019.83 1020.26 1020.72 1021.68 1021.72 1021.80 1022.07 1021.34 1020.87 1020.85 1020.69 1020.28 1020.54 1020.67 1020.50 1020.16
996.26 996.39 997.12 997.72 998.57 999.23 999.71 1000.55 1001.70 1002.49 1003.82 1004.69 1005.73 1006.84 1008.15 1009.78 1011.18 1012.78 1013.98 1015.13 1015.99 1016.78 1017.46 1017.53 1018.76 1019.50 1019.24 1020.28 1021.28 1021.78 1021.85 1021.97 1022.10 1022.48 1022.23 1020.93 1020.69 1020.72 1020.94 1021.04 1020.58 1020.32 1020.22
Thickness
5663 5661 5658 5658 5656 5654 5651 5647 5640 5640 5634 5635 5636 5637 5634 5631 5634 5636 5635 5636 5635 5631 5630 5628 5625 5626 5627 5629 5632 5635 5639 5642 5641 5642 5647 5643 5643 5643 5640 5640 5641 5641 5638
5666 5663 5659 5658 5657 5654 5652 5649 5644 5641 5637 5632 5633 5636 5636 5637 5635 5640 5642 5639 5639 5639 5638 5630 5627 5627 5629 5632 5634 5640 5642 5650 5649 5645 5645 5644 5645 5645 5641 5643 5646 5647 5645
5670 5663 5660 5659 5657 5654 5653 5652 5651 5646 5640 5636 5636 5632 5637 5640 5642 5643 5640 5643 5643 5640 5637 5635 5634 5634 5636 5635 5642 5647 5654 5657 5653 5649 5647 5648 5648 5650 5646 5647 5645 5645 5645
5673 5666 5661 5661 5659 5659 5658 5658 5656 5653 5649 5645 5640 5637 5638 5645 5645 5646 5648 5645 5644 5643 5642 5642 5643 5640 5643 5648 5653 5652 5657 5659 5658 5654 5653 5649 5651 5648 5647 5643 5641 5643 5643
5677 5670 5664 5663 5662 5662 5661 5662 5660 5658 5655 5652 5649 5648 5649 5653 5649 5650 5650 5650 5647 5647 5647 5648 5647 5647 5649 5650 5655 5656 5659 5660 5659 5658 5657 5652 5648 5649 5645 5648 5647 5647 5641
5680 5675 5669 5665 5664 5662 5661 5661 5661 5660 5659 5657 5656 5653 5650 5649 5648 5653 5654 5651 5648 5647 5647 5649 5649 5649 5650 5652 5658 5659 5661 5663 5663 5662 5661 5656 5655 5652 5652 5648 5645 5638 5638
5684 5681 5675 5671 5668 5665 5665 5663 5661 5660 5660 5660 5657 5653 5649 5648 5646 5651 5656 5658 5658 5656 5654 5654 5656 5654 5657 5658 5655 5657 5656 5658 5661 5663 5659 5658 5654 5649 5646 5643 5638 5640 5636
5689 5686 5681 5677 5674 5671 5668 5667 5663 5662 5660 5660 5660 5658 5652 5646 5646 5652 5656 5657 5657 5658 5660 5660 5658 5659 5659 5660 5658 5660 5659 5658 5654 5655 5652 5649 5649 5646 5645 5643 5639 5635 5634
5695 5692 5688 5684 5679 5676 5672 5669 5667 5665 5664 5662 5662 5660 5657 5651 5646 5649 5650 5657 5657 5657 5657 5660 5660 5659 5652 5649 5654 5653 5654 5653 5647 5647 5646 5643 5642 5639 5634 5633 5631 5628 5627
5703 5699 5696 5692 5686 5681 5677 5672 5671 5670 5668 5670 5666 5664 5661 5660 5651 5652 5655 5667 5658 5656 5656 5651 5648 5654 5648 5648 5656 5655 5652 5652 5652 5649 5644 5639 5635 5632 5627 5621 5619 5617 5617
5711 5707 5701 5696 5691 5687 5681 5676 5673 5671 5672 5671 5669 5667 5666 5665 5656 5653 5654 5659 5661 5659 5658 5655 5653 5645 5643 5644 5645 5651 5645 5643 5644 5642 5639 5638 5635 5629 5623 5616 5610 5603 5601
5716 5711 5705 5698 5695 5690 5684 5679 5675 5674 5673 5668 5668 5667 5668 5665 5660 5653 5653 5650 5653 5663 5662 5661 5656 5648 5645 5643 5641 5639 5637 5634 5636 5635 5633 5630 5627 5625 5623 5616 5608 5601 5592
5719 5713 5708 5700 5696 5693 5686 5682 5678 5676 5677 5672 5671 5671 5672 5669 5663 5656 5654 5651 5651 5657 5659 5651 5649 5643 5639 5636 5634 5630 5625 5628 5628 5626 5625 5624 5622 5616 5606 5600 5596 5590 5584
5718 5714 5710 5702 5697 5694 5690 5686 5685 5681 5681 5681 5680 5679 5679 5674 5671 5661 5656 5651 5646 5647 5645 5643 5640 5637 5635 5632 5630 5624 5623 5622 5621 5619 5615 5614 5610 5604 5596 5588 5578 5571 5568
5719 5715 5711 5705 5698 5696 5695 5693 5691 5690 5689 5687 5687 5686 5683 5679 5677 5671 5663 5657 5653 5650 5649 5647 5641 5640 5637 5634 5631 5632 5631 5626 5620 5614 5607 5599 5592 5587 5581 5574 5573 5563 5552
5718 5715 5713 5711 5702 5699 5694 5693 5690 5690 5686 5682 5680 5685 5689 5684 5676 5668 5661 5655 5652 5647 5644 5647 5645 5645 5643 5641 5638 5631 5621 5613 5605 5601 5594 5585 5577 5572 5560 5554 5550 5552 5539
5722 5718 5714 5709 5708 5703 5699 5695 5689 5679 5675 5675 5670 5671 5675 5671 5666 5661 5654 5647 5642 5639 5643 5647 5647 5647 5640 5634 5627 5617 5604 5597 5590 5581 5571 5562 5555 5550 5541 5539 5534 5531 5526
5723 5715 5714 5710 5712 5705 5703 5698 5695 5688 5679 5676 5662 5664 5661 5658 5657 5652 5646 5641 5636 5632 5642 5644 5641 5634 5629 5621 5613 5602 5590 5581 5573 5564 5554 5547 5542 5538 5531 5528 5522 5513 5507
5723 5719 5717 5717 5713 5709 5706 5701 5696 5694 5688 5681 5675 5655 5648 5645 5643 5640 5639 5646 5647 5645 5642 5640 5633 5622 5612 5602 5592 5583 5573 5564 5554 5546 5543 5539 5536 5529 5520 5510 5503 5491 5484
5724 5717 5715 5715 5714 5710 5709 5705 5700 5697 5695 5689 5684 5672 5655 5643 5643 5641 5638 5640 5644 5649 5639 5624 5615 5606 5596 5587 5577 5566 5553 5546 5548 5542 5532 5523 5517 5512 5506 5495 5489 5481 5472
5725 5719 5711 5712 5712 5712 5709 5706 5704 5698 5694 5691 5688 5683 5661 5656 5651 5646 5643 5647 5644 5633 5622 5610 5603 5591 5580 5568 5562 5556 5549 5542 5533 5525 5521 5509 5501 5496 5487 5482 5475 5468 5464
5725 5721 5715 5710 5712 5711 5709 5706 5701 5695 5691 5687 5678 5668 5656 5660 5661 5650 5642 5633 5626 5618 5608 5598 5588 5579 5568 5558 5551 5550 5530 5527 5519 5507 5505 5497 5490 5484 5479 5470 5465 5460 5453
5719 5717 5714 5710 5709 5703 5701 5702 5694 5688 5686 5681 5661 5657 5650 5652 5647 5636 5622 5613 5603 5594 5585 5578 5573 5564 5555 5546 5540 5534 5522 5511 5502 5495 5491 5486 5484 5474 5465 5459 5456 5449 5438
5712 5710 5707 5704 5697 5695 5692 5689 5684 5675 5672 5674 5661 5652 5651 5640 5630 5616 5603 5592 5584 5577 5570 5560 5549 5543 5536 5530 5524 5515 5506 5495 5489 5484 5482 5478 5472 5463 5458 5454 5446 5435 5423
5707 5703 5700 5696 5692 5686 5685 5680 5673 5673 5664 5656 5650 5646 5635 5623 5612 5601 5589 5577 5566 5555 5548 5541 5532 5527 5523 5511 5504 5497 5489 5484 5477 5474 5471 5466 5460 5455 5453 5443 5433 5424 5418
5698 5699 5694 5690 5685 5683 5680 5675 5667 5660 5650 5644 5636 5628 5619 5607 5596 5583 5572 5561 5549 5539 5532 5530 5519 5510 5509 5496 5485 5481 5478 5473 5469 5463 5456 5456 5452 5447 5438 5429 5424 5418 5407